Time,TemperatureF,DewpointF,PressureIn,WindDirection,WindDirectionDegrees,WindSpeedMPH,WindSpeedGustMPH,Humidity,HourlyPrecipIn,Conditions,Clouds,dailyrainin,SoftwareType,DateUTC
2013-04-29 00:01:00,58.5,52.7,29.53,SSW,202,0.0,3.1,81,0.00,,OVC036,0.04,VWS V14.01,2013-04-29 04:01:00,
2013-04-29 00:06:00,58.5,53.0,29.53,SSW,202,0.0,0.0,82,0.00,,OVC035,0.00,VWS V14.01,2013-04-29 04:06:00,
2013-04-29 00:11:00,58.3,52.8,29.53,SSW,202,0.0,0.0,82,0.00,,OVC035,0.00,VWS V14.01,2013-04-29 04:11:00,
2013-04-29 00:16:00,58.3,53.2,29.53,SSW,202,0.0,0.0,83,0.00,,OVC035,0.00,VWS V14.01,2013-04-29 04:16:00,
2013-04-29 00:21:00,58.3,53.2,29.53,SSW,202,0.0,0.0,83,0.00,,OVC035,0.00,VWS V14.01,2013-04-29 04:21:00,
2013-04-29 00:26:00,58.3,53.2,29.53,SW,225,0.0,0.0,83,0.00,,OVC035,0.00,VWS V14.01,2013-04-29 04:26:00,
2013-04-29 00:31:00,58.3,53.2,29.53,SSW,202,0.0,0.0,83,0.00,,OVC035,0.00,VWS V14.01,2013-04-29 04:31:00,
2013-04-29 00:36:00,58.1,53.0,29.53,SW,225,0.0,0.0,83,0.00,,OVC035,0.00,VWS V14.01,2013-04-29 04:36:00,
2013-04-29 00:41:00,58.1,53.3,29.53,SSW,202,0.0,0.0,84,0.00,,OVC035,0.00,VWS V14.01,2013-04-29 04:41:00,
2013-04-29 00:46:00,58.1,53.3,29.53,South,180,0.0,0.0,84,0.00,,OVC035,0.00,VWS V14.01,2013-04-29 04:46:00,
2013-04-29 00:51:00,58.1,53.6,29.53,SW,225,0.0,0.0,85,0.00,,OVC035,0.00,VWS V14.01,2013-04-29 04:51:00,
2013-04-29 00:56:00,58.1,53.6,29.53,SW,225,0.0,0.0,85,0.00,,OVC035,0.00,VWS V14.01,2013-04-29 04:56:00,
2013-04-29 01:01:00,58.1,53.3,29.53,SW,225,0.0,0.0,84,0.00,,OVC007,0.00,VWS V14.01,2013-04-29 05:01:00,
2013-04-29 01:06:00,58.1,53.6,29.53,SSW,202,0.0,0.0,85,0.00,,OVC007,0.00,VWS V14.01,2013-04-29 05:06:00,
2013-04-29 01:11:00,58.1,53.6,29.53,SSW,202,0.0,0.0,85,0.00,,OVC007,0.00,VWS V14.01,2013-04-29 05:11:00,
2013-04-29 01:16:00,58.1,53.6,29.53,WSW,248,0.0,0.0,85,0.00,,OVC007,0.00,VWS V14.01,2013-04-29 05:16:00,
2013-04-29 01:21:00,58.1,53.6,29.53,WSW,248,0.0,0.0,85,0.00,,OVC007,0.00,VWS V14.01,2013-04-29 05:21:00,
2013-04-29 01:26:00,58.1,53.9,29.53,SSW,202,0.0,0.0,86,0.00,,OVC007,0.00,VWS V14.01,2013-04-29 05:26:00,
2013-04-29 01:31:00,58.1,53.6,29.56,West,270,0.0,0.0,85,0.00,,OVC007,0.00,VWS V14.01,2013-04-29 05:31:00,
2013-04-29 01:36:00,58.1,53.6,29.56,WSW,248,0.0,0.0,85,0.00,,OVC007,0.00,VWS V14.01,2013-04-29 05:36:00,
2013-04-29 01:41:00,58.1,53.6,29.56,WSW,248,0.0,0.0,85,0.00,,OVC007,0.00,VWS V14.01,2013-04-29 05:41:00,
2013-04-29 01:46:00,58.1,53.6,29.56,SW,225,0.0,0.0,85,0.00,,OVC007,0.00,VWS V14.01,2013-04-29 05:46:00,
2013-04-29 01:51:00,58.1,53.6,29.56,SW,225,0.0,0.0,85,0.00,,OVC007,0.00,VWS V14.01,2013-04-29 05:51:00,
2013-04-29 01:56:00,58.1,53.9,29.56,SW,225,0.0,0.0,86,0.00,,OVC007,0.00,VWS V14.01,2013-04-29 05:56:00,
2013-04-29 02:01:00,58.1,53.6,29.56,SSW,202,0.0,0.0,85,0.00,,OVC007,0.00,VWS V14.01,2013-04-29 06:01:00,
2013-04-29 02:06:00,58.1,53.9,29.56,SW,225,0.0,0.0,86,0.00,,OVC007,0.00,VWS V14.01,2013-04-29 06:06:00,
2013-04-29 02:11:00,58.1,53.6,29.56,SW,225,0.0,0.0,85,0.00,,OVC007,0.00,VWS V14.01,2013-04-29 06:11:00,
2013-04-29 02:16:00,58.1,53.6,29.56,SSW,202,1.6,1.6,85,0.00,,OVC007,0.00,VWS V14.01,2013-04-29 06:16:00,
2013-04-29 02:21:00,58.1,53.6,29.56,SW,225,0.0,1.6,85,0.00,,OVC007,0.00,VWS V14.01,2013-04-29 06:21:00,
2013-04-29 02:26:00,58.1,53.6,29.56,SW,225,0.0,1.6,85,0.00,,OVC007,0.00,VWS V14.01,2013-04-29 06:26:00,
2013-04-29 02:31:00,58.1,53.6,29.56,South,180,0.0,1.6,85,0.00,,OVC007,0.00,VWS V14.01,2013-04-29 06:31:00,
2013-04-29 02:36:00,58.1,53.3,29.56,WSW,248,0.0,1.6,84,0.00,,OVC007,0.00,VWS V14.01,2013-04-29 06:36:00,
2013-04-29 02:41:00,58.1,53.3,29.56,WSW,248,0.0,1.6,84,0.00,,OVC007,0.00,VWS V14.01,2013-04-29 06:41:00,
2013-04-29 02:46:00,58.1,53.3,29.56,WSW,248,0.0,1.6,84,0.00,,OVC007,0.00,VWS V14.01,2013-04-29 06:46:00,
2013-04-29 02:51:00,58.1,53.6,29.56,SW,225,0.0,1.6,85,0.00,,OVC007,0.00,VWS V14.01,2013-04-29 06:51:00,
2013-04-29 02:56:00,58.1,53.6,29.56,West,270,0.0,1.6,85,0.00,,OVC007,0.00,VWS V14.01,2013-04-29 06:56:00,
2013-04-29 03:01:00,58.1,53.6,29.56,SW,225,0.0,0.0,85,0.00,,,0.00,VWS V14.01,2013-04-29 07:01:00,
2013-04-29 03:06:00,58.1,53.6,29.56,SW,225,0.0,0.0,85,0.00,,,0.00,VWS V14.01,2013-04-29 07:06:00,
2013-04-29 03:11:00,57.9,53.4,29.56,SW,225,0.0,0.0,85,0.00,,,0.00,VWS V14.01,2013-04-29 07:11:00,
2013-04-29 03:16:00,57.9,53.4,29.56,SSW,202,0.0,0.0,85,0.00,,,0.00,VWS V14.01,2013-04-29 07:16:00,
2013-04-29 03:21:00,57.9,53.4,29.56,SSW,202,0.0,0.0,85,0.00,,,0.00,VWS V14.01,2013-04-29 07:21:00,
2013-04-29 03:26:00,57.9,53.4,29.56,SSW,202,0.0,0.0,85,0.00,,,0.00,VWS V14.01,2013-04-29 07:26:00,
2013-04-29 03:31:00,57.9,53.8,29.56,SSW,202,0.0,0.0,86,0.00,,,0.00,VWS V14.01,2013-04-29 07:31:00,
2013-04-29 03:36:00,57.9,53.8,29.56,WSW,248,0.0,0.0,86,0.00,,,0.00,VWS V14.01,2013-04-29 07:36:00,
2013-04-29 03:41:00,57.9,53.8,29.56,WSW,248,0.0,0.0,86,0.00,,,0.00,VWS V14.01,2013-04-29 07:41:00,
2013-04-29 03:46:00,57.9,53.8,29.56,WSW,248,0.0,0.0,86,0.00,,,0.00,VWS V14.01,2013-04-29 07:46:00,
2013-04-29 03:51:00,57.9,53.8,29.56,WSW,248,0.0,0.0,86,0.00,,,0.00,VWS V14.01,2013-04-29 07:51:00,
2013-04-29 03:56:00,57.9,53.8,29.56,WSW,248,0.0,0.0,86,0.00,,,0.00,VWS V14.01,2013-04-29 07:56:00,
2013-04-29 04:01:00,57.9,53.8,29.56,WSW,248,0.0,0.0,86,0.00,,OVC009,0.00,VWS V14.01,2013-04-29 08:01:00,
2013-04-29 04:06:00,57.9,53.8,29.56,SW,225,0.0,0.0,86,0.00,,OVC009,0.00,VWS V14.01,2013-04-29 08:06:00,
2013-04-29 04:11:00,57.9,53.8,29.56,SW,225,0.0,0.0,86,0.00,,OVC009,0.00,VWS V14.01,2013-04-29 08:11:00,
2013-04-29 04:16:00,57.9,53.8,29.56,SW,225,0.0,0.0,86,0.00,,OVC009,0.00,VWS V14.01,2013-04-29 08:16:00,
2013-04-29 04:21:00,57.9,54.1,29.56,SW,225,0.0,0.0,87,0.00,,OVC009,0.00,VWS V14.01,2013-04-29 08:21:00,
2013-04-29 04:26:00,57.7,53.9,29.56,South,180,0.0,0.0,87,0.00,,OVC009,0.00,VWS V14.01,2013-04-29 08:26:00,
2013-04-29 04:31:00,57.9,54.1,29.56,SSW,202,0.0,0.0,87,0.00,,OVC009,0.00,VWS V14.01,2013-04-29 08:31:00,
2013-04-29 04:36:00,57.9,54.1,29.56,SSW,202,0.0,0.0,87,0.00,,OVC009,0.00,VWS V14.01,2013-04-29 08:36:00,
2013-04-29 04:41:00,57.9,54.1,29.56,SSW,202,0.0,0.0,87,0.00,,OVC009,0.00,VWS V14.01,2013-04-29 08:41:00,
2013-04-29 04:46:00,57.9,54.1,29.56,SW,225,0.0,0.0,87,0.00,,OVC009,0.00,VWS V14.01,2013-04-29 08:46:00,
2013-04-29 04:51:00,57.9,54.1,29.56,SW,225,0.0,0.0,87,0.00,,OVC009,0.00,VWS V14.01,2013-04-29 08:51:00,
2013-04-29 04:56:00,57.9,54.1,29.56,SW,225,0.0,0.0,87,0.00,,OVC009,0.00,VWS V14.01,2013-04-29 08:56:00,
2013-04-29 05:01:00,57.9,54.1,29.56,SW,225,0.0,0.0,87,0.00,,OVC009,0.00,VWS V14.01,2013-04-29 09:01:00,
2013-04-29 05:06:00,57.9,54.1,29.56,SW,225,0.0,0.0,87,0.00,,OVC009,0.00,VWS V14.01,2013-04-29 09:06:00,
2013-04-29 05:11:00,57.9,54.1,29.56,SW,225,0.0,0.0,87,0.00,,OVC009,0.00,VWS V14.01,2013-04-29 09:11:00,
2013-04-29 05:16:00,57.9,54.1,29.56,SW,225,0.0,0.0,87,0.00,,OVC009,0.00,VWS V14.01,2013-04-29 09:16:00,
2013-04-29 05:21:00,57.9,54.1,29.56,SSW,202,0.0,0.0,87,0.00,,OVC009,0.00,VWS V14.01,2013-04-29 09:21:00,
2013-04-29 05:26:00,57.9,54.1,29.56,SW,225,0.0,0.0,87,0.00,,OVC009,0.00,VWS V14.01,2013-04-29 09:26:00,
2013-04-29 05:31:00,57.9,54.1,29.56,SW,225,0.0,0.0,87,0.00,,OVC009,0.00,VWS V14.01,2013-04-29 09:31:00,
2013-04-29 05:36:00,57.7,53.9,29.56,SSW,202,0.0,0.0,87,0.00,,OVC009,0.00,VWS V14.01,2013-04-29 09:36:00,
2013-04-29 05:41:00,57.7,53.9,29.56,SSW,202,0.0,0.0,87,0.00,,OVC009,0.00,VWS V14.01,2013-04-29 09:41:00,
2013-04-29 05:46:00,57.7,53.9,29.59,SSW,202,0.0,0.0,87,0.00,,OVC009,0.00,VWS V14.01,2013-04-29 09:46:00,
2013-04-29 05:51:00,57.7,53.9,29.59,SSW,202,0.0,0.0,87,0.00,,OVC009,0.00,VWS V14.01,2013-04-29 09:51:00,
2013-04-29 05:56:00,57.7,54.2,29.59,SSW,202,0.0,0.0,88,0.00,,OVC009,0.00,VWS V14.01,2013-04-29 09:56:00,
2013-04-29 06:01:00,57.7,53.9,29.56,SSW,202,0.0,0.0,87,0.00,,OVC042,0.00,VWS V14.01,2013-04-29 10:01:00,
2013-04-29 06:06:00,57.7,54.2,29.56,SW,225,0.0,0.0,88,0.00,,OVC042,0.00,VWS V14.01,2013-04-29 10:06:00,
2013-04-29 06:11:00,57.7,53.9,29.56,SW,225,0.0,0.0,87,0.00,,OVC042,0.00,VWS V14.01,2013-04-29 10:11:00,
2013-04-29 06:16:00,57.7,53.9,29.56,SW,225,0.0,0.0,87,0.00,,OVC042,0.00,VWS V14.01,2013-04-29 10:16:00,
2013-04-29 06:21:00,57.7,53.9,29.56,SW,225,0.0,0.0,87,0.00,,OVC042,0.00,VWS V14.01,2013-04-29 10:21:00,
2013-04-29 06:26:00,57.7,53.9,29.56,SW,225,0.0,0.0,87,0.00,,OVC042,0.00,VWS V14.01,2013-04-29 10:26:00,
2013-04-29 06:31:00,57.7,54.2,29.56,SSW,202,0.0,0.0,88,0.00,,OVC042,0.00,VWS V14.01,2013-04-29 10:31:00,
2013-04-29 06:36:00,57.7,54.2,29.56,SSW,202,0.0,0.0,88,0.00,,OVC042,0.00,VWS V14.01,2013-04-29 10:36:00,
2013-04-29 06:41:00,57.7,54.2,29.56,WSW,248,0.0,1.1,88,0.00,,OVC042,0.00,VWS V14.01,2013-04-29 10:41:00,
2013-04-29 06:46:00,57.7,54.2,29.56,WSW,248,0.0,1.1,88,0.00,,OVC042,0.00,VWS V14.01,2013-04-29 10:46:00,
2013-04-29 06:51:00,57.7,54.2,29.56,WSW,248,0.0,1.1,88,0.00,,OVC042,0.00,VWS V14.01,2013-04-29 10:51:00,
2013-04-29 06:56:00,57.7,54.2,29.56,WSW,248,0.0,1.1,88,0.00,,OVC042,0.00,VWS V14.01,2013-04-29 10:56:00,
2013-04-29 07:01:00,57.7,54.5,29.56,WSW,248,0.0,0.0,89,0.00,,OVC042,0.00,VWS V14.01,2013-04-29 11:01:00,
2013-04-29 07:06:00,57.7,54.5,29.56,WSW,248,0.0,0.0,89,0.00,,OVC042,0.00,VWS V14.01,2013-04-29 11:06:00,
2013-04-29 07:11:00,57.7,54.5,29.56,WSW,248,0.0,0.0,89,0.00,,OVC042,0.00,VWS V14.01,2013-04-29 11:11:00,
2013-04-29 07:16:00,57.9,54.7,29.56,WSW,248,0.0,0.0,89,0.00,,OVC042,0.00,VWS V14.01,2013-04-29 11:16:00,
2013-04-29 07:21:00,57.9,54.7,29.56,WSW,248,0.0,0.0,89,0.00,,OVC042,0.00,VWS V14.01,2013-04-29 11:21:00,
2013-04-29 07:26:00,57.9,54.7,29.56,WSW,248,0.0,0.0,89,0.00,,OVC042,0.00,VWS V14.01,2013-04-29 11:26:00,
2013-04-29 07:31:00,57.9,54.7,29.56,WSW,248,0.0,0.0,89,0.00,,OVC042,0.00,VWS V14.01,2013-04-29 11:31:00,
2013-04-29 07:36:00,58.1,54.9,29.56,SSE,158,0.0,0.0,89,0.00,,OVC042,0.00,VWS V14.01,2013-04-29 11:36:00,
2013-04-29 07:41:00,58.1,54.9,29.56,SSE,158,0.0,0.0,89,0.00,,OVC042,0.00,VWS V14.01,2013-04-29 11:41:00,
2013-04-29 07:46:00,58.1,54.9,29.59,SSE,158,0.0,0.0,89,0.00,,OVC042,0.00,VWS V14.01,2013-04-29 11:46:00,
2013-04-29 07:51:00,58.1,54.6,29.59,WSW,248,0.0,0.0,88,0.00,,OVC042,0.00,VWS V14.01,2013-04-29 11:51:00,
2013-04-29 07:56:00,58.3,54.8,29.59,SW,225,0.0,0.0,88,0.00,,OVC042,0.00,VWS V14.01,2013-04-29 11:56:00,
2013-04-29 08:01:00,58.3,54.4,29.59,WSW,248,0.0,0.0,87,0.00,,,0.00,VWS V14.01,2013-04-29 12:01:00,
2013-04-29 08:06:00,58.5,54.6,29.59,WSW,248,0.0,0.0,87,0.00,,,0.00,VWS V14.01,2013-04-29 12:06:00,
2013-04-29 08:11:00,58.5,54.6,29.59,SW,225,2.0,2.5,87,0.00,,,0.00,VWS V14.01,2013-04-29 12:11:00,
2013-04-29 08:16:00,58.6,54.8,29.59,SSW,202,0.0,2.5,87,0.00,,,0.00,VWS V14.01,2013-04-29 12:16:00,
2013-04-29 08:21:00,58.6,54.5,29.59,SSW,202,0.0,2.5,86,0.00,,,0.00,VWS V14.01,2013-04-29 12:21:00,
2013-04-29 08:26:00,58.8,54.7,29.59,SW,225,0.0,2.5,86,0.00,,,0.00,VWS V14.01,2013-04-29 12:26:00,
2013-04-29 08:31:00,58.8,54.7,29.59,SSW,202,0.0,2.5,86,0.00,,,0.00,VWS V14.01,2013-04-29 12:31:00,
2013-04-29 08:36:00,59.0,54.5,29.59,SSW,202,0.0,2.5,85,0.00,,,0.00,VWS V14.01,2013-04-29 12:36:00,
2013-04-29 08:41:00,59.0,54.2,29.59,SSW,202,0.0,2.5,84,0.00,,,0.00,VWS V14.01,2013-04-29 12:41:00,
2013-04-29 08:46:00,59.2,54.4,29.62,SSW,202,0.0,2.5,84,0.00,,,0.00,VWS V14.01,2013-04-29 12:46:00,
2013-04-29 08:51:00,59.2,54.4,29.62,SSW,202,0.0,2.5,84,0.00,,,0.00,VWS V14.01,2013-04-29 12:51:00,
2013-04-29 08:56:00,59.4,54.2,29.62,South,180,0.0,2.5,83,0.00,,,0.00,VWS V14.01,2013-04-29 12:56:00,
2013-04-29 09:01:00,59.4,54.2,29.62,South,180,0.0,0.0,83,0.00,,,0.00,VWS V14.01,2013-04-29 13:01:00,
2013-04-29 09:06:00,59.5,54.4,29.62,South,180,0.0,0.0,83,0.00,,,0.00,VWS V14.01,2013-04-29 13:06:00,
2013-04-29 09:11:00,59.7,54.6,29.62,South,180,0.0,0.0,83,0.00,,,0.00,VWS V14.01,2013-04-29 13:11:00,
2013-04-29 09:16:00,59.7,54.2,29.62,SSW,202,2.0,2.2,82,0.00,,,0.00,VWS V14.01,2013-04-29 13:16:00,
2013-04-29 09:21:00,59.9,54.1,29.62,SSW,202,0.0,2.7,81,0.00,,,0.00,VWS V14.01,2013-04-29 13:21:00,
2013-04-29 09:26:00,60.1,54.2,29.62,SSW,202,0.0,2.7,81,0.00,,,0.00,VWS V14.01,2013-04-29 13:26:00,
2013-04-29 09:31:00,60.1,53.9,29.62,SSW,202,0.0,2.7,80,0.00,,,0.00,VWS V14.01,2013-04-29 13:31:00,
2013-04-29 09:36:00,60.3,54.1,29.62,WSW,248,0.0,2.7,80,0.00,,,0.00,VWS V14.01,2013-04-29 13:36:00,
2013-04-29 09:41:00,60.4,54.2,29.62,WSW,248,0.0,2.7,80,0.00,,,0.00,VWS V14.01,2013-04-29 13:41:00,
2013-04-29 09:46:00,60.4,53.9,29.62,WSW,248,0.0,2.7,79,0.00,,,0.00,VWS V14.01,2013-04-29 13:46:00,
2013-04-29 09:51:00,60.6,54.1,29.62,SSW,202,2.9,2.9,79,0.00,,,0.00,VWS V14.01,2013-04-29 13:51:00,
2013-04-29 09:56:00,60.8,53.5,29.62,South,180,0.0,2.9,77,0.00,,,0.00,VWS V14.01,2013-04-29 13:56:00,
2013-04-29 10:01:00,60.8,53.5,29.62,SSW,202,0.0,0.0,77,0.00,,,0.00,VWS V14.01,2013-04-29 14:01:00,
2013-04-29 10:06:00,61.0,53.4,29.62,South,180,0.0,2.0,76,0.00,,,0.00,VWS V14.01,2013-04-29 14:06:00,
2013-04-29 10:11:00,61.0,53.4,29.62,South,180,0.0,2.0,76,0.00,,,0.00,VWS V14.01,2013-04-29 14:11:00,
2013-04-29 10:16:00,61.2,53.2,29.62,SSW,202,0.0,2.0,75,0.00,,,0.00,VWS V14.01,2013-04-29 14:16:00,
2013-04-29 10:21:00,61.2,53.2,29.62,South,180,0.0,2.0,75,0.00,,,0.00,VWS V14.01,2013-04-29 14:21:00,
2013-04-29 10:26:00,61.3,53.4,29.62,SSW,202,1.3,2.0,75,0.00,,,0.00,VWS V14.01,2013-04-29 14:26:00,
2013-04-29 10:31:00,61.5,53.2,29.62,SSW,202,0.0,2.2,74,0.00,,,0.00,VWS V14.01,2013-04-29 14:31:00,
2013-04-29 10:36:00,61.5,52.8,29.62,SW,225,0.0,2.2,73,0.00,,,0.00,VWS V14.01,2013-04-29 14:36:00,
2013-04-29 10:41:00,61.7,53.0,29.62,SSW,202,0.0,2.2,73,0.00,,,0.00,VWS V14.01,2013-04-29 14:41:00,
2013-04-29 10:46:00,61.9,53.1,29.59,SSW,202,0.0,2.2,73,0.00,,,0.00,VWS V14.01,2013-04-29 14:46:00,
2013-04-29 10:51:00,61.7,52.2,29.59,NNW,338,0.0,2.2,71,0.00,,,0.00,VWS V14.01,2013-04-29 14:51:00,
2013-04-29 10:56:00,61.9,52.4,29.59,West,270,0.0,2.2,71,0.00,,,0.00,VWS V14.01,2013-04-29 14:56:00,
2013-04-29 11:01:00,62.1,52.6,29.65,SSW,202,0.0,0.0,71,0.00,,OVC044,0.00,VWS V14.01,2013-04-29 15:01:00,
2013-04-29 11:06:00,62.1,52.2,29.65,NNE,22,0.0,0.0,70,0.00,,OVC044,0.00,VWS V14.01,2013-04-29 15:06:00,
2013-04-29 11:11:00,62.2,52.3,29.65,West,270,0.0,0.0,70,0.00,,OVC044,0.00,VWS V14.01,2013-04-29 15:11:00,
2013-04-29 11:16:00,62.4,52.9,29.62,SSW,202,0.0,0.0,71,0.00,,OVC044,0.00,VWS V14.01,2013-04-29 15:16:00,
2013-04-29 11:21:00,62.8,52.5,29.62,SSW,202,0.0,0.0,69,0.00,,OVC044,0.00,VWS V14.01,2013-04-29 15:21:00,
2013-04-29 11:26:00,63.1,53.2,29.62,SSW,202,0.0,0.0,70,0.00,,OVC044,0.00,VWS V14.01,2013-04-29 15:26:00,
2013-04-29 11:31:00,63.3,52.6,29.62,WSW,248,0.0,0.0,68,0.04,,OVC044,0.04,VWS V14.01,2013-04-29 15:31:00,
2013-04-29 11:36:00,63.5,52.8,29.62,SW,225,0.0,0.0,68,0.04,,OVC044,0.04,VWS V14.01,2013-04-29 15:36:00,
2013-04-29 11:41:00,63.7,52.1,29.62,South,180,0.0,0.0,66,0.04,,OVC044,0.04,VWS V14.01,2013-04-29 15:41:00,
2013-04-29 11:46:00,64.0,52.5,29.62,NNE,22,0.0,0.0,66,0.04,,OVC044,0.04,VWS V14.01,2013-04-29 15:46:00,
2013-04-29 11:51:00,64.6,52.6,29.62,SW,225,0.0,0.0,65,0.04,,OVC044,0.04,VWS V14.01,2013-04-29 15:51:00,
2013-04-29 11:56:00,64.8,51.9,29.62,WNW,292,0.0,0.0,63,0.04,,OVC044,0.04,VWS V14.01,2013-04-29 15:56:00,
2013-04-29 12:01:00,64.9,51.6,29.62,WSW,248,0.0,0.0,62,0.04,,OVC044,0.04,VWS V14.01,2013-04-29 16:01:00,
2013-04-29 12:06:00,65.3,51.5,29.62,West,270,0.0,0.0,61,0.04,,OVC044,0.04,VWS V14.01,2013-04-29 16:06:00,
2013-04-29 12:11:00,65.5,51.2,29.62,South,180,0.0,0.0,60,0.04,,OVC044,0.04,VWS V14.01,2013-04-29 16:11:00,
2013-04-29 12:16:00,65.5,49.9,29.62,SSE,158,0.0,3.6,57,0.04,,OVC044,0.04,VWS V14.01,2013-04-29 16:16:00,
2013-04-29 12:21:00,66.0,51.3,29.62,SSW,202,1.6,3.6,59,0.04,,OVC044,0.04,VWS V14.01,2013-04-29 16:21:00,
2013-04-29 12:26:00,66.2,50.1,29.62,NW,315,0.0,3.6,56,0.04,,OVC044,0.04,VWS V14.01,2013-04-29 16:26:00,
2013-04-29 12:31:00,66.6,48.9,29.62,WSW,248,1.3,3.6,53,0.04,,OVC044,0.04,VWS V14.01,2013-04-29 16:31:00,
2013-04-29 12:36:00,66.9,49.2,29.62,SSW,202,0.9,3.6,53,0.04,,OVC044,0.04,VWS V14.01,2013-04-29 16:36:00,
2013-04-29 12:41:00,67.1,47.9,29.62,South,180,2.9,3.6,50,0.04,,OVC044,0.04,VWS V14.01,2013-04-29 16:41:00,
2013-04-29 12:46:00,67.5,48.2,29.62,SSW,202,2.7,3.6,50,0.04,,OVC044,0.04,VWS V14.01,2013-04-29 16:46:00,
2013-04-29 12:51:00,68.2,47.8,29.62,NNE,22,1.3,3.6,48,0.04,,OVC044,0.04,VWS V14.01,2013-04-29 16:51:00,
2013-04-29 12:56:00,68.2,48.3,29.62,SSW,202,1.6,3.6,49,0.04,,OVC044,0.04,VWS V14.01,2013-04-29 16:56:00,
2013-04-29 13:01:00,68.5,47.5,29.59,NNW,338,0.0,0.0,47,0.00,,OVC044,0.04,VWS V14.01,2013-04-29 17:01:00,
2013-04-29 13:06:00,69.4,47.2,29.59,ESE,112,1.3,2.5,45,0.00,,OVC044,0.04,VWS V14.01,2013-04-29 17:06:00,
2013-04-29 13:11:00,69.8,47.5,29.59,SW,225,0.0,2.9,45,0.00,,OVC044,0.04,VWS V14.01,2013-04-29 17:11:00,
2013-04-29 13:16:00,70.2,48.4,29.62,SSW,202,1.3,2.9,46,0.00,,OVC044,0.04,VWS V14.01,2013-04-29 17:16:00,
2013-04-29 13:21:00,71.2,47.0,29.62,SSE,158,1.3,3.6,42,0.00,,OVC044,0.04,VWS V14.01,2013-04-29 17:21:00,
2013-04-29 13:26:00,71.1,46.2,29.62,South,180,0.0,3.6,41,0.00,,OVC044,0.04,VWS V14.01,2013-04-29 17:26:00,
2013-04-29 13:31:00,70.3,46.2,29.59,South,180,1.3,3.6,42,0.00,,OVC044,0.04,VWS V14.01,2013-04-29 17:31:00,
2013-04-29 13:36:00,70.2,46.0,29.59,SSE,158,1.3,3.6,42,0.00,,OVC044,0.04,VWS V14.01,2013-04-29 17:36:00,
2013-04-29 13:41:00,70.3,46.2,29.59,SSW,202,2.0,3.6,42,0.00,,OVC044,0.04,VWS V14.01,2013-04-29 17:41:00,
2013-04-29 13:46:00,70.9,46.7,29.59,WNW,292,3.1,3.6,42,0.00,,OVC044,0.04,VWS V14.01,2013-04-29 17:46:00,
2013-04-29 13:51:00,71.2,46.4,29.59,SW,225,0.0,3.6,41,0.00,,OVC044,0.04,VWS V14.01,2013-04-29 17:51:00,
2013-04-29 13:56:00,71.2,45.0,29.59,ESE,112,4.3,4.3,39,0.00,,OVC044,0.04,VWS V14.01,2013-04-29 17:56:00,
2013-04-29 14:01:00,71.2,42.9,29.59,SSW,202,0.0,4.3,36,0.00,,OVC044,0.04,VWS V14.01,2013-04-29 18:01:00,
2013-04-29 14:06:00,72.3,43.9,29.59,SSE,158,2.9,4.0,36,0.00,,OVC044,0.04,VWS V14.01,2013-04-29 18:06:00,
2013-04-29 14:11:00,72.9,44.4,29.59,SSW,202,1.3,4.9,36,0.00,,OVC044,0.04,VWS V14.01,2013-04-29 18:11:00,
2013-04-29 14:16:00,72.7,42.7,29.59,WNW,292,0.0,4.9,34,0.00,,OVC044,0.04,VWS V14.01,2013-04-29 18:16:00,
2013-04-29 14:21:00,72.3,42.4,29.59,SW,225,2.9,4.9,34,0.00,,OVC044,0.04,VWS V14.01,2013-04-29 18:21:00,
2013-04-29 14:26:00,72.0,42.8,29.59,WSW,248,2.2,4.9,35,0.00,,OVC044,0.04,VWS V14.01,2013-04-29 18:26:00,
2013-04-29 14:31:00,71.4,42.4,29.59,SSW,202,1.6,4.9,35,0.00,,OVC044,0.04,VWS V14.01,2013-04-29 18:31:00,
2013-04-29 14:35:00,70.9,41.9,29.59,South,180,2.5,4.9,35,0.00,,OVC044,0.04,VWS V14.01,2013-04-29 18:35:00,
2013-04-29 14:40:00,70.3,41.4,29.59,WSW,248,2.9,4.9,35,0.00,,OVC044,0.04,VWS V14.01,2013-04-29 18:40:00,
2013-04-29 14:45:00,70.2,42.0,29.59,SSE,158,2.9,4.9,36,0.00,,OVC044,0.04,VWS V14.01,2013-04-29 18:45:00,
2013-04-29 14:50:00,70.0,41.8,29.59,SSE,158,2.5,4.9,36,0.00,,OVC044,0.04,VWS V14.01,2013-04-29 18:50:00,
2013-04-29 14:55:00,70.2,44.1,29.59,South,180,2.0,4.9,39,0.00,,OVC044,0.04,VWS V14.01,2013-04-29 18:55:00,
2013-04-29 15:00:00,70.3,44.2,29.59,SSE,158,2.9,4.9,39,0.00,,OVC044,0.04,VWS V14.01,2013-04-29 19:00:00,
2013-04-29 15:05:00,70.3,43.5,29.59,SSW,202,2.9,4.9,38,0.00,,OVC040,0.04,VWS V14.01,2013-04-29 19:05:00,
2013-04-29 15:10:00,70.5,43.7,29.59,SW,225,1.6,4.9,38,0.00,,OVC040,0.04,VWS V14.01,2013-04-29 19:10:00,
2013-04-29 15:15:00,70.5,42.3,29.59,South,180,3.1,4.9,36,0.00,,OVC040,0.04,VWS V14.01,2013-04-29 19:15:00,
2013-04-29 15:20:00,70.9,42.6,29.59,South,180,3.1,4.9,36,0.00,,OVC040,0.04,VWS V14.01,2013-04-29 19:20:00,
2013-04-29 15:25:00,71.8,43.4,29.59,South,180,2.7,4.9,36,0.00,,OVC040,0.04,VWS V14.01,2013-04-29 19:25:00,
2013-04-29 15:30:00,72.3,43.9,29.59,SW,225,0.0,4.9,36,0.00,,OVC040,0.04,VWS V14.01,2013-04-29 19:30:00,
2013-04-29 15:35:00,72.7,43.5,29.59,South,180,1.6,4.9,35,0.00,,OVC040,0.04,VWS V14.01,2013-04-29 19:35:00,
2013-04-29 15:40:00,72.9,43.6,29.59,SSE,158,2.7,4.9,35,0.00,,OVC040,0.04,VWS V14.01,2013-04-29 19:40:00,
2013-04-29 15:45:00,73.0,43.0,29.56,SW,225,2.0,4.9,34,0.00,,OVC040,0.04,VWS V14.01,2013-04-29 19:45:00,
2013-04-29 15:50:00,72.9,42.9,29.56,South,180,1.6,4.9,34,0.00,,OVC040,0.04,VWS V14.01,2013-04-29 19:50:00,
2013-04-29 15:55:00,72.7,42.7,29.56,WSW,248,2.0,4.9,34,0.00,,OVC040,0.04,VWS V14.01,2013-04-29 19:55:00,
2013-04-29 16:00:00,72.9,42.9,29.56,WSW,248,2.7,4.9,34,0.00,,OVC040,0.04,VWS V14.01,2013-04-29 20:00:00,
2013-04-29 16:05:00,72.9,42.9,29.56,South,180,2.5,3.6,34,0.00,,OVC040,0.04,VWS V14.01,2013-04-29 20:05:00,
2013-04-29 16:10:00,72.9,42.9,29.56,WSW,248,0.0,3.6,34,0.00,,OVC040,0.04,VWS V14.01,2013-04-29 20:10:00,
2013-04-29 16:15:00,72.9,42.9,29.56,South,180,1.3,3.6,34,0.00,,OVC040,0.04,VWS V14.01,2013-04-29 20:15:00,
2013-04-29 16:20:00,72.9,42.9,29.56,SSW,202,2.5,3.6,34,0.00,,OVC040,0.04,VWS V14.01,2013-04-29 20:20:00,
2013-04-29 16:25:00,72.7,42.0,29.56,SW,225,2.7,4.3,33,0.00,,OVC040,0.04,VWS V14.01,2013-04-29 20:25:00,
2013-04-29 16:30:00,72.7,42.0,29.56,South,180,1.3,4.3,33,0.00,,OVC040,0.04,VWS V14.01,2013-04-29 20:30:00,
2013-04-29 16:35:00,72.5,42.6,29.56,South,180,2.2,4.3,34,0.00,,OVC040,0.04,VWS V14.01,2013-04-29 20:35:00,
2013-04-29 16:40:00,72.5,41.8,29.56,South,180,2.5,4.3,33,0.00,,OVC040,0.04,VWS V14.01,2013-04-29 20:40:00,
2013-04-29 16:45:00,72.7,42.0,29.56,North,0,2.0,4.3,33,0.00,,OVC040,0.04,VWS V14.01,2013-04-29 20:45:00,
2013-04-29 16:50:00,72.5,42.6,29.56,South,180,3.8,4.3,34,0.00,,OVC040,0.04,VWS V14.01,2013-04-29 20:50:00,
2013-04-29 16:55:00,72.3,40.8,29.56,NNW,338,3.1,4.3,32,0.00,,OVC040,0.04,VWS V14.01,2013-04-29 20:55:00,
2013-04-29 17:00:00,72.3,41.6,29.56,SSE,158,2.2,4.3,33,0.00,,OVC040,0.04,VWS V14.01,2013-04-29 21:00:00,
2013-04-29 17:05:00,72.3,41.6,29.56,SSW,202,2.0,2.9,33,0.00,,OVC040,0.04,VWS V14.01,2013-04-29 21:05:00,
2013-04-29 17:10:00,72.1,41.5,29.56,SW,225,0.0,2.9,33,0.00,,OVC040,0.04,VWS V14.01,2013-04-29 21:10:00,
2013-04-29 17:15:00,72.0,41.3,29.56,SSW,202,1.6,2.9,33,0.00,,OVC040,0.04,VWS V14.01,2013-04-29 21:15:00,
2013-04-29 17:20:00,71.8,40.4,29.56,SSE,158,2.0,2.9,32,0.00,,OVC040,0.04,VWS V14.01,2013-04-29 21:20:00,
2013-04-29 17:25:00,71.4,40.8,29.56,SSE,158,2.9,2.9,33,0.00,,OVC040,0.04,VWS V14.01,2013-04-29 21:25:00,
2013-04-29 17:30:00,71.2,41.5,29.56,SSW,202,2.9,3.4,34,0.00,,OVC040,0.04,VWS V14.01,2013-04-29 21:30:00,
2013-04-29 17:35:00,70.9,41.1,29.56,SSW,202,3.1,3.8,34,0.00,,OVC040,0.04,VWS V14.01,2013-04-29 21:35:00,
2013-04-29 17:40:00,70.5,41.6,29.56,SSW,202,2.5,4.0,35,0.00,,OVC040,0.04,VWS V14.01,2013-04-29 21:40:00,
2013-04-29 17:45:00,70.3,41.4,29.56,SSW,202,3.1,4.0,35,0.00,,OVC040,0.04,VWS V14.01,2013-04-29 21:45:00,
2013-04-29 17:50:00,70.3,41.4,29.56,South,180,3.1,4.0,35,0.00,,OVC040,0.04,VWS V14.01,2013-04-29 21:50:00,
2013-04-29 17:55:00,70.3,42.2,29.56,South,180,2.0,5.4,36,0.00,,OVC040,0.04,VWS V14.01,2013-04-29 21:55:00,
2013-04-29 18:00:00,70.3,42.2,29.56,SW,225,2.2,5.4,36,0.00,,OVC040,0.04,VWS V14.01,2013-04-29 22:00:00,
2013-04-29 18:05:00,72.0,42.8,29.56,ESE,112,3.4,4.3,35,0.00,,OVC040,0.04,VWS V14.01,2013-04-29 22:05:00,
2013-04-29 18:10:00,72.3,43.2,29.56,SE,135,2.7,4.3,35,0.00,,OVC040,0.04,VWS V14.01,2013-04-29 22:10:00,
2013-04-29 18:15:00,71.8,41.2,29.56,SSW,202,2.7,4.7,33,0.00,,OVC040,0.04,VWS V14.01,2013-04-29 22:15:00,
2013-04-29 18:20:00,72.1,43.0,29.56,SSE,158,2.9,4.7,35,0.00,,OVC040,0.04,VWS V14.01,2013-04-29 22:20:00,
2013-04-29 18:25:00,72.5,41.8,29.56,SSE,158,2.0,5.8,33,0.00,,OVC040,0.04,VWS V14.01,2013-04-29 22:25:00,
2013-04-29 18:30:00,72.3,41.6,29.53,SW,225,1.1,5.8,33,0.00,,OVC040,0.04,VWS V14.01,2013-04-29 22:30:00,
2013-04-29 18:35:00,72.1,41.5,29.53,SSW,202,1.3,5.8,33,0.00,,OVC040,0.04,VWS V14.01,2013-04-29 22:35:00,
2013-04-29 18:40:00,71.4,41.6,29.53,SSW,202,2.0,5.8,34,0.00,,OVC040,0.04,VWS V14.01,2013-04-29 22:40:00,
2013-04-29 18:45:00,71.1,41.3,29.53,SSW,202,3.6,5.8,34,0.00,,OVC040,0.04,VWS V14.01,2013-04-29 22:45:00,
2013-04-29 18:50:00,70.5,40.8,29.53,ESE,112,3.1,5.8,34,0.00,,OVC040,0.04,VWS V14.01,2013-04-29 22:50:00,
2013-04-29 18:55:00,70.2,40.5,29.53,SSW,202,3.4,5.8,34,0.00,,OVC040,0.04,VWS V14.01,2013-04-29 22:55:00,
2013-04-29 19:00:00,69.8,40.9,29.53,SSE,158,2.5,5.8,35,0.00,,OVC040,0.04,VWS V14.01,2013-04-29 23:00:00,
2013-04-29 19:05:00,69.4,40.6,29.53,SSE,158,2.5,3.8,35,0.00,,OVC040,0.04,VWS V14.01,2013-04-29 23:05:00,
2013-04-29 19:10:00,69.3,41.2,29.53,SE,135,2.7,3.8,36,0.00,,OVC040,0.04,VWS V14.01,2013-04-29 23:10:00,
2013-04-29 19:15:00,68.9,40.9,29.53,SSW,202,2.0,3.8,36,0.00,,OVC040,0.04,VWS V14.01,2013-04-29 23:15:00,
2013-04-29 19:20:00,68.7,40.7,29.53,SSE,158,2.5,3.8,36,0.00,,OVC040,0.04,VWS V14.01,2013-04-29 23:20:00,
2013-04-29 19:25:00,68.4,40.4,29.53,SE,135,0.0,3.8,36,0.00,,OVC040,0.04,VWS V14.01,2013-04-29 23:25:00,
2013-04-29 19:30:00,68.2,40.9,29.53,South,180,2.0,3.8,37,0.00,,OVC040,0.04,VWS V14.01,2013-04-29 23:30:00,
2013-04-29 19:35:00,67.8,40.6,29.53,ESE,112,0.0,3.8,37,0.00,,OVC040,0.04,VWS V14.01,2013-04-29 23:35:00,
2013-04-29 19:40:00,67.5,41.0,29.53,South,180,0.0,3.8,38,0.00,,OVC040,0.04,VWS V14.01,2013-04-29 23:40:00,
2013-04-29 19:45:00,67.1,40.7,29.53,South,180,0.9,3.8,38,0.00,,OVC040,0.04,VWS V14.01,2013-04-29 23:45:00,
2013-04-29 19:50:00,66.9,41.2,29.53,SW,225,2.0,3.8,39,0.00,,OVC040,0.04,VWS V14.01,2013-04-29 23:50:00,
2013-04-29 19:55:00,66.7,41.7,29.53,SSW,202,1.1,3.8,40,0.00,,OVC040,0.04,VWS V14.01,2013-04-29 23:55:00,
2013-04-29 20:00:00,66.4,42.0,29.53,SSW,202,2.0,3.8,41,0.00,,OVC040,0.04,VWS V14.01,2013-04-30 00:00:00,
2013-04-29 20:05:00,66.0,41.7,29.53,SSE,158,1.6,2.9,41,0.00,,OVC040,0.04,VWS V14.01,2013-04-30 00:05:00,
2013-04-29 20:10:00,65.7,42.0,29.53,South,180,3.1,3.1,42,0.00,,OVC040,0.04,VWS V14.01,2013-04-30 00:10:00,
2013-04-29 20:15:00,65.5,42.4,29.53,SE,135,0.0,3.6,43,0.00,,OVC040,0.04,VWS V14.01,2013-04-30 00:15:00,
2013-04-29 20:20:00,65.3,42.2,29.53,SSE,158,2.5,3.6,43,0.00,,OVC040,0.04,VWS V14.01,2013-04-30 00:20:00,
2013-04-29 20:25:00,64.9,42.5,29.53,SSE,158,1.3,3.6,44,0.00,,OVC040,0.04,VWS V14.01,2013-04-30 00:25:00,
2013-04-29 20:30:00,64.6,42.2,29.56,South,180,0.0,3.6,44,0.00,,OVC040,0.04,VWS V14.01,2013-04-30 00:30:00,
2013-04-29 20:35:00,64.2,42.5,29.56,South,180,1.3,4.0,45,0.00,,OVC040,0.04,VWS V14.01,2013-04-30 00:35:00,
2013-04-29 20:40:00,63.9,42.7,29.56,South,180,1.6,4.0,46,0.00,,OVC040,0.04,VWS V14.01,2013-04-30 00:40:00,
2013-04-29 20:45:00,63.7,42.5,29.56,South,180,1.3,4.0,46,0.00,,OVC040,0.04,VWS V14.01,2013-04-30 00:45:00,
2013-04-29 20:50:00,63.5,42.9,29.56,ESE,112,1.1,4.0,47,0.00,,OVC040,0.04,VWS V14.01,2013-04-30 00:50:00,
2013-04-29 20:55:00,63.1,43.2,29.56,South,180,0.0,4.0,48,0.00,,OVC040,0.04,VWS V14.01,2013-04-30 00:55:00,
2013-04-29 21:00:00,63.0,43.0,29.56,SE,135,2.5,4.0,48,0.00,,OVC040,0.04,VWS V14.01,2013-04-30 01:00:00,
2013-04-29 21:05:00,62.6,43.2,29.56,SSE,158,0.0,2.2,49,0.00,,OVC040,0.04,VWS V14.01,2013-04-30 01:05:00,
2013-04-29 21:10:00,62.4,43.5,29.56,SSE,158,0.0,2.2,50,0.00,,OVC040,0.04,VWS V14.01,2013-04-30 01:10:00,
2013-04-29 21:15:00,62.2,43.4,29.56,SSE,158,0.0,2.2,50,0.00,,OVC040,0.04,VWS V14.01,2013-04-30 01:15:00,
2013-04-29 21:20:00,62.1,44.2,29.56,SSE,158,0.0,2.2,52,0.00,,OVC040,0.04,VWS V14.01,2013-04-30 01:20:00,
2013-04-29 21:25:00,61.9,44.1,29.56,SSE,158,0.0,2.2,52,0.00,,OVC040,0.04,VWS V14.01,2013-04-30 01:25:00,
2013-04-29 21:30:00,61.7,44.4,29.56,SSE,158,0.0,2.2,53,0.00,,OVC040,0.04,VWS V14.01,2013-04-30 01:30:00,
2013-04-29 21:35:00,61.5,44.2,29.56,SSE,158,0.0,2.2,53,0.00,,OVC040,0.04,VWS V14.01,2013-04-30 01:35:00,
2013-04-29 21:40:00,61.3,44.6,29.56,SE,135,2.0,2.2,54,0.00,,OVC040,0.04,VWS V14.01,2013-04-30 01:40:00,
2013-04-29 21:45:00,61.2,44.4,29.56,South,180,0.0,2.2,54,0.00,,OVC040,0.04,VWS V14.01,2013-04-30 01:45:00,
2013-04-29 21:50:00,61.0,44.7,29.56,ESE,112,1.1,2.2,55,0.00,,OVC040,0.04,VWS V14.01,2013-04-30 01:50:00,
2013-04-29 21:55:00,60.8,45.0,29.56,SE,135,0.0,2.5,56,0.00,,OVC040,0.04,VWS V14.01,2013-04-30 01:55:00,
2013-04-29 22:00:00,60.6,45.3,29.59,South,180,0.0,2.5,57,0.00,,OVC040,0.04,VWS V14.01,2013-04-30 02:00:00,
2013-04-29 22:05:00,60.4,45.6,29.59,SE,135,2.2,2.2,58,0.00,,OVC040,0.04,VWS V14.01,2013-04-30 02:05:00,
2013-04-29 22:10:00,60.4,45.6,29.59,SE,135,0.9,2.7,58,0.00,,OVC040,0.04,VWS V14.01,2013-04-30 02:10:00,
2013-04-29 22:15:00,60.3,45.9,29.59,SSE,158,0.0,2.9,59,0.00,,OVC040,0.04,VWS V14.01,2013-04-30 02:15:00,
2013-04-29 22:20:00,60.1,46.2,29.59,SSE,158,0.9,2.9,60,0.00,,OVC040,0.04,VWS V14.01,2013-04-30 02:20:00,
2013-04-29 22:25:00,60.1,46.2,29.59,South,180,0.0,2.9,60,0.00,,OVC040,0.04,VWS V14.01,2013-04-30 02:25:00,
2013-04-29 22:30:00,59.9,46.4,29.56,South,180,0.0,2.9,61,0.00,,OVC040,0.04,VWS V14.01,2013-04-30 02:30:00,
2013-04-29 22:35:00,59.7,46.7,29.56,SSE,158,1.6,2.9,62,0.00,,OVC040,0.04,VWS V14.01,2013-04-30 02:35:00,
2013-04-29 22:40:00,59.7,46.7,29.56,SSE,158,0.0,2.9,62,0.00,,OVC040,0.04,VWS V14.01,2013-04-30 02:40:00,
2013-04-29 22:45:00,59.5,47.0,29.53,SSE,158,0.0,2.9,63,0.00,,OVC040,0.04,VWS V14.01,2013-04-30 02:45:00,
2013-04-29 22:50:00,59.4,46.8,29.53,SSE,158,0.0,2.9,63,0.00,,OVC040,0.04,VWS V14.01,2013-04-30 02:50:00,
2013-04-29 22:55:00,59.2,47.0,29.53,SSE,158,2.7,2.9,64,0.00,,OVC040,0.04,VWS V14.01,2013-04-30 02:55:00,
2013-04-29 23:00:00,59.0,46.8,29.56,SSE,158,0.0,2.9,64,0.00,,OVC040,0.04,VWS V14.01,2013-04-30 03:00:00,
2013-04-29 23:05:00,59.0,47.3,29.56,SSE,158,0.0,1.3,65,0.00,,OVC040,0.04,VWS V14.01,2013-04-30 03:05:00,
2013-04-29 23:10:00,58.8,47.5,29.56,SSE,158,0.0,1.3,66,0.00,,OVC040,0.04,VWS V14.01,2013-04-30 03:10:00,
2013-04-29 23:15:00,58.6,47.3,29.56,SSW,202,0.0,1.3,66,0.00,,OVC040,0.04,VWS V14.01,2013-04-30 03:15:00,
2013-04-29 23:20:00,58.5,47.2,29.56,SSE,158,0.0,1.3,66,0.00,,OVC040,0.04,VWS V14.01,2013-04-30 03:20:00,
2013-04-29 23:25:00,58.5,47.6,29.56,SE,135,1.3,1.3,67,0.00,,OVC040,0.04,VWS V14.01,2013-04-30 03:25:00,
2013-04-29 23:30:00,58.3,47.8,29.56,SE,135,0.0,1.3,68,0.00,,OVC040,0.04,VWS V14.01,2013-04-30 03:30:00,
2013-04-29 23:35:00,58.1,47.6,29.56,ESE,112,0.0,1.3,68,0.00,,OVC040,0.04,VWS V14.01,2013-04-30 03:35:00,
2013-04-29 23:40:00,58.1,47.6,29.56,ESE,112,0.0,1.3,68,0.00,,OVC040,0.04,VWS V14.01,2013-04-30 03:40:00,
2013-04-29 23:45:00,57.9,47.8,29.56,ESE,112,0.0,1.3,69,0.00,,OVC040,0.04,VWS V14.01,2013-04-30 03:45:00,
2013-04-29 23:50:00,57.9,47.8,29.56,ESE,112,0.0,1.3,69,0.00,,OVC040,0.04,VWS V14.01,2013-04-30 03:50:00,
2013-04-29 23:55:00,57.7,47.7,29.56,South,180,0.0,1.3,69,0.00,,OVC040,0.04,VWS V14.01,2013-04-30 03:55:00,